N8SDR Weather Reports


Display with metric or nautical units.
time (UTC)temp
F
wind
direction
speed
MPH
gust
MPH
rain 1hr
in
rain 24hr
in
rain mn
in
humidity
%
barometer
mb
20260507113625 41 11 0.0 0.0 0.00 0.00 0.00 98 1012.0
20260507113122 40 28 0.0 0.0 0.00 0.00 0.00 99 1012.1
20260507112620 40 31 0.0 0.0 0.00 0.00 0.00 99 1012.1
20260507112116 39 4 0.0 0.0 0.00 0.00 0.00 99 1012.1
20260507111614 39 22 0.0 0.0 0.00 0.00 0.00 99 1012.2
20260507111110 39 44 0.0 0.0 0.00 0.00 0.00 99 1012.0
20260507110607 39 26 0.0 0.0 0.00 0.00 0.00 99 1011.9
20260507110103 39 110 0.0 0.0 0.00 0.00 0.00 99 1011.9
20260507105600 39 29 0.0 0.0 0.00 0.00 0.00 99 1011.7
20260507105056 39 31 0.0 0.0 0.00 0.00 0.00 99 1011.8
20260507104554 39 89 0.0 0.0 0.00 0.00 0.00 99 1011.6
20260507104050 39 25 0.0 0.0 0.00 0.00 0.00 99 1011.5
20260507103546 39 356 0.0 0.0 0.00 0.00 0.00 99 1011.7
20260507103043 39 51 0.0 0.0 0.00 0.00 0.00 99 1011.4
20260507102539 39 22 0.0 0.0 0.00 0.00 0.00 99 1011.4
20260507102036 39 2 0.0 0.0 0.00 0.00 0.00 99 1011.6
20260507101531 39 68 0.0 0.0 0.00 0.00 0.00 99 1011.5
20260507101028 39 55 0.0 0.0 0.00 0.00 0.00 99 1011.5
20260507100525 40 19 0.0 0.0 0.00 0.00 0.00 99 1011.4
20260507100023 40 37 0.0 0.0 0.00 0.00 0.00 99 1011.6
20260507095521 40 109 0.0 0.0 0.00 0.00 0.00 99 1011.4
20260507095017 40 95 0.0 0.0 0.00 0.00 0.00 99 1011.5
20260507094514 40 55 0.0 0.0 0.00 0.00 0.00 99 1011.5
20260507094011 40 126 0.0 0.0 0.00 0.00 0.00 99 1011.5
20260507093508 39 4 0.0 0.0 0.00 0.00 0.00 99 1011.6
20260507093007 40 34 0.0 0.0 0.00 0.00 0.00 99 1011.4
20260507092503 40 26 0.0 0.0 0.00 0.00 0.00 99 1011.5
20260507092000 40 5 0.0 0.0 0.00 0.00 0.00 99 1011.3
20260507091456 40 19 0.0 0.0 0.00 0.00 0.00 99 1011.5
20260507090952 40 31 0.0 0.0 0.00 0.00 0.00 99 1011.2
20260507090448 40 34 0.0 0.0 0.00 0.00 0.00 99 1011.4
20260507085944 40 32 0.0 0.0 0.00 0.00 0.00 99 1010.9
20260507085442 40 56 0.0 0.0 0.00 0.00 0.00 99 1011.0
20260507084939 40 49 0.0 0.0 0.00 0.00 0.00 99 1011.2
20260507084435 40 21 0.0 0.0 0.00 0.00 0.00 99 1011.2
20260507083933 40 16 0.0 0.0 0.00 0.00 0.00 99 1011.2
20260507083429 40 42 0.0 0.0 0.00 0.00 0.00 99 1011.0
20260507082925 40 82 0.0 0.0 0.00 0.00 0.00 99 1011.1
20260507082421 41 353 0.0 1.0 0.00 0.00 0.00 99 1011.2
20260507081918 41 60 0.0 0.0 0.00 0.00 0.00 99 1011.2
20260507081414 41 113 0.0 0.0 0.00 0.00 0.00 99 1010.8
20260507080911 41 77 0.0 0.0 0.00 0.00 0.00 99 1011.1
20260507080408 41 49 0.0 0.0 0.00 0.00 0.00 99 1011.0
20260507075903 41 38 0.0 0.0 0.00 0.00 0.00 99 1011.0
20260507075359 41 17 0.0 0.0 0.00 0.00 0.00 99 1010.9
20260507074856 41 22 0.0 0.0 0.00 0.00 0.00 99 1010.8
20260507074353 41 358 0.0 0.0 0.00 0.00 0.00 99 1011.0
20260507073850 41 64 0.0 0.0 0.00 0.00 0.00 99 1011.1
20260507073347 41 11 0.0 0.0 0.00 0.00 0.00 99 1011.0
20260507072844 41 59 0.0 0.0 0.00 0.00 0.00 99 1011.1
20260507072341 41 67 0.0 0.0 0.00 0.00 0.00 99 1010.8
20260507071839 41 19 0.0 0.0 0.00 0.00 0.00 99 1010.8
20260507071336 41 22 0.0 0.0 0.00 0.00 0.00 99 1011.0
20260507070832 41 19 0.0 0.0 0.00 0.00 0.00 99 1011.2
20260507070329 41 12 0.0 0.0 0.00 0.00 0.00 99 1010.8
20260507065826 41 18 0.0 0.0 0.00 0.00 0.00 99 1011.1
20260507065323 41 18 0.0 0.0 0.00 0.00 0.00 99 1011.0
20260507064820 41 16 0.0 0.0 0.00 0.00 0.00 99 1011.2
20260507064318 41 16 0.0 0.0 0.00 0.00 0.00 99 1010.9
20260507063816 41 19 0.0 0.0 0.00 0.00 0.00 99 1011.1
20260507063313 41 16 0.0 0.0 0.00 0.00 0.00 99 1011.1
20260507062809 41 16 0.0 0.0 0.00 0.00 0.00 99 1011.4
20260507062307 41 16 0.0 0.0 0.00 0.00 0.00 99 1011.2
20260507061805 41 16 0.0 0.0 0.00 0.00 0.00 99 1011.3
20260507061302 41 16 0.0 0.0 0.00 0.00 0.00 99 1011.3
20260507060800 41 16 0.0 0.0 0.00 0.00 0.00 99 1011.0
20260507060256 41 16 0.0 0.0 0.00 0.00 0.00 99 1011.3
20260507055753 41 16 0.0 0.0 0.00 0.00 0.00 99 1011.3
20260507055248 42 16 0.0 0.0 0.00 0.00 0.00 99 1011.4
20260507054745 42 16 0.0 0.0 0.00 0.00 0.00 99 1011.5
20260507054242 42 16 0.0 0.0 0.00 0.00 0.00 99 1011.3
20260507053739 42 16 0.0 0.0 0.00 0.00 0.00 99 1011.4
20260507053236 42 13 0.0 0.0 0.00 0.00 0.00 99 1011.3
20260507052735 42 13 0.0 0.0 0.00 0.00 0.00 99 1011.4
20260507052231 43 13 0.0 0.0 0.00 0.00 0.00 99 1011.3
20260507051729 43 13 0.0 0.0 0.00 0.00 0.00 99 1011.4
20260507051226 42 13 0.0 0.0 0.00 0.00 0.00 99 1011.4
20260507050723 43 13 0.0 0.0 0.00 0.00 0.00 99 1011.6
20260507050220 43 10 0.0 0.0 0.00 0.00 0.00 99 1011.3
20260507045716 43 13 0.0 0.0 0.00 0.00 0.00 99 1011.7
20260507045212 44 13 0.0 0.0 0.00 0.00 0.00 99 1011.5
20260507044710 44 13 0.0 0.0 0.00 0.00 0.00 99 1011.5
20260507044206 44 14 0.0 0.0 0.00 0.00 0.00 99 1011.4
20260507043703 44 13 0.0 0.0 0.00 0.00 0.00 99 1011.5
20260507043200 44 13 0.0 0.0 0.00 0.00 0.00 99 1011.4
20260507042656 44 13 0.0 0.0 0.00 0.00 0.00 99 1011.1
20260507042151 44 13 0.0 0.0 0.00 0.00 0.00 99 1011.3
20260507041648 44 0 0.0 0.0 0.00 0.00 0.00 99 1011.6
20260507041144 45 14 0.0 0.0 0.00 0.00 0.00 99 1011.4
20260507040642 45 13 0.0 0.0 0.00 0.00 0.00 99 1011.5
20260507040138 45 13 0.0 0.0 0.00 0.00 0.00 98 1011.5
20260507035634 45 13 0.0 0.0 0.00 0.58 0.58 98 1011.4
20260507035130 46 12 0.0 0.0 0.00 0.58 0.58 98 1011.3
20260507034627 46 10 0.0 0.0 0.00 0.58 0.58 98 1011.2
20260507034125 46 37 0.0 0.0 0.00 0.58 0.58 98 1011.3
20260507033623 46 294 0.0 0.0 0.00 0.58 0.58 98 1011.3
20260507033120 46 16 0.0 0.0 0.00 0.58 0.58 98 1011.2
20260507032617 46 17 0.0 0.0 0.00 0.58 0.58 97 1011.2
20260507032113 46 16 0.0 0.0 0.00 0.58 0.58 97 1011.3
20260507031610 46 24 0.0 0.0 0.00 0.58 0.58 97 1011.3
20260507031106 46 17 0.0 0.0 0.00 0.58 0.58 97 1011.3
20260507030603 46 16 0.0 0.0 0.00 0.58 0.58 96 1011.2
20260507030101 46 17 0.0 0.0 0.00 0.58 0.58 96 1011.3
20260507025558 46 16 0.0 0.0 0.00 0.58 0.58 95 1011.6
20260507025055 47 16 0.0 0.0 0.00 0.58 0.58 95 1011.4
20260507024553 47 16 0.0 0.0 0.00 0.58 0.58 94 1011.5
20260507024050 47 16 0.0 0.0 0.00 0.58 0.58 94 1011.4
20260507023545 47 16 0.0 0.0 0.00 0.58 0.58 93 1011.4
20260507023043 47 16 0.0 0.0 0.00 0.58 0.58 92 1011.5
20260507022540 48 16 0.0 0.0 0.00 0.58 0.58 92 1011.5
20260507022035 48 16 0.0 0.0 0.00 0.58 0.58 91 1011.4
20260507021531 48 16 0.0 0.0 0.00 0.58 0.58 90 1011.4
20260507021028 49 16 0.0 0.0 0.00 0.58 0.58 89 1011.3
20260507020526 49 16 0.0 0.0 0.00 0.58 0.58 89 1011.0
20260507020022 49 16 0.0 0.0 0.00 0.58 0.58 88 1010.9
20260507015521 50 16 0.0 0.0 0.00 0.58 0.58 87 1011.0
20260507015018 50 16 0.0 0.0 0.00 0.58 0.58 87 1011.0
20260507014514 50 16 0.0 0.0 0.00 0.58 0.58 86 1010.7
20260507014010 50 16 0.0 0.0 0.00 0.58 0.58 86 1011.0
20260507013507 50 16 0.0 0.0 0.00 0.58 0.58 85 1011.0
20260507013004 50 16 0.0 0.0 0.00 0.58 0.58 84 1010.7
20260507012501 50 16 0.0 0.0 0.00 0.58 0.58 83 1010.6
20260507011957 50 16 0.0 0.0 0.00 0.58 0.58 83 1010.7
20260507011454 50 17 0.0 0.0 0.00 0.58 0.58 82 1010.7
20260507010950 51 16 0.0 0.0 0.00 0.58 0.58 81 1010.7
20260507010445 51 16 0.0 0.0 0.00 0.58 0.58 80 1010.6
20260507005942 52 16 0.0 0.0 0.00 0.58 0.58 79 1010.4
20260507005439 52 16 0.0 0.0 0.00 0.58 0.58 77 1010.4
20260507004935 53 16 0.0 0.0 0.00 0.58 0.58 76 1010.7
20260507004432 54 15 0.0 0.0 0.00 0.58 0.58 73 1010.7
20260507003930 54 329 0.0 0.0 0.00 0.58 0.58 70 1010.6
20260507003425 55 328 0.0 0.0 0.00 0.58 0.58 68 1010.3
20260507002920 55 317 0.0 0.0 0.00 0.58 0.58 66 1010.3
20260507002417 56 328 0.0 0.0 0.00 0.58 0.58 65 1010.2
20260507001914 56 313 0.0 1.0 0.00 0.58 0.58 64 1010.1
20260507001410 56 323 0.0 2.0 0.00 0.58 0.58 64 1010.0
20260507000908 57 349 2.0 3.0 0.00 0.58 0.58 63 1010.0
20260507000405 57 304 1.0 1.0 0.00 0.58 0.58 63 1010.1
20260506235859 57 348 1.0 2.0 0.00 0.58 0.58 62 1010.0
20260506235357 57 302 1.0 3.0 0.00 0.58 0.58 61 1010.0
20260506234852 57 344 2.0 5.0 0.00 0.58 0.58 61 1010.0
20260506234350 57 287 2.0 5.0 0.00 0.58 0.58 61 1009.8
20260506233848 57 322 2.0 3.0 0.00 0.58 0.58 62 1010.4
20260506233343 57 317 1.0 2.0 0.00 0.58 0.58 62 1010.1
20260506232841 57 8 1.0 2.0 0.00 0.58 0.58 61 1009.9
20260506232336 57 2 3.0 3.0 0.00 0.58 0.58 60 1010.1
20260506231833 57 27 3.0 3.0 0.00 0.58 0.58 62 1009.9
20260506231331 58 19 1.0 3.0 0.00 0.58 0.58 60 1009.9
20260506230828 58 330 2.0 5.0 0.00 0.58 0.58 58 1010.0
20260506230325 58 333 2.0 5.0 0.00 0.58 0.58 60 1010.2
20260506225820 58 301 3.0 3.0 0.00 0.58 0.58 59 1010.0
20260506225318 58 321 5.0 6.0 0.00 0.58 0.58 59 1010.3
20260506224815 59 343 5.0 6.0 0.00 0.58 0.58 58 1010.0
20260506224312 58 358 5.0 8.0 0.00 0.58 0.58 59 1010.2
20260506223808 58 335 5.0 6.0 0.00 0.58 0.58 59 1010.2
20260506223303 58 310 3.0 3.0 0.00 0.58 0.58 60 1010.3
20260506222801 58 32 3.0 6.0 0.00 0.58 0.58 60 1010.2
20260506222256 58 321 3.0 3.0 0.00 0.58 0.58 59 1010.3
20260506221755 58 356 3.0 6.0 0.00 0.58 0.58 58 1010.3
20260506221252 58 285 3.0 3.0 0.00 0.58 0.58 60 1010.2
20260506220750 58 13 3.0 5.0 0.00 0.58 0.58 60 1010.2
20260506220244 58 19 2.0 3.0 0.00 0.58 0.58 60 1010.3
20260506215741 58 323 3.0 5.0 0.00 0.58 0.58 59 1010.4
20260506215237 58 18 2.0 2.0 0.00 0.58 0.58 58 1010.6
20260506214733 58 346 1.0 6.0 0.00 0.58 0.58 59 1010.3
20260506214231 58 314 4.0 6.0 0.00 0.58 0.58 57 1010.2
20260506213729 58 323 4.0 5.0 0.00 0.58 0.58 58 1010.1
20260506213226 58 293 4.0 7.0 0.00 0.58 0.58 56 1010.3
20260506212723 58 350 3.0 6.0 0.00 0.58 0.58 56 1010.0
20260506212218 58 349 0.0 3.0 0.00 0.58 0.58 58 1010.2
20260506211714 59 15 2.0 5.0 0.00 0.58 0.58 57 1010.1
20260506211210 59 307 3.0 3.0 0.00 0.58 0.58 58 1010.0
20260506210708 58 311 1.0 7.0 0.00 0.58 0.58 58 1010.1
20260506210204 58 326 3.0 5.0 0.00 0.58 0.58 57 1010.0
20260506205702 58 358 2.0 3.0 0.00 0.58 0.58 59 1009.8
20260506205156 58 338 1.0 3.0 0.00 0.58 0.58 59 1009.9
20260506204654 58 305 5.0 6.0 0.00 0.58 0.58 57 1009.9
20260506204151 58 27 3.0 3.0 0.00 0.58 0.58 57 1009.9
20260506203649 58 18 2.0 5.0 0.00 0.58 0.58 57 1009.8
20260506203146 58 56 4.0 6.0 0.00 0.58 0.58 58 1009.9
20260506202644 58 325 0.0 5.0 0.00 0.58 0.58 58 1010.0
20260506202139 58 346 2.0 3.0 0.00 0.58 0.58 58 1010.1
20260506201636 59 309 3.0 5.0 0.00 0.58 0.58 57 1009.9
20260506201133 58 0 1.0 3.0 0.00 0.58 0.58 58 1010.0
20260506200630 58 280 5.0 7.0 0.00 0.58 0.58 56 1010.0
20260506200127 58 295 5.0 10.0 0.00 0.58 0.58 57 1009.9
20260506195623 58 333 4.0 6.0 0.00 0.58 0.58 58 1009.8
20260506195119 59 340 1.0 5.0 0.00 0.58 0.58 60 1009.8
20260506194617 59 337 1.0 5.0 0.00 0.58 0.58 59 1009.7
20260506194113 59 352 1.0 5.0 0.00 0.58 0.58 59 1009.9
20260506193611 59 334 2.0 6.0 0.00 0.58 0.58 57 1009.8
20260506193108 60 308 6.0 9.0 0.00 0.58 0.58 56 1009.8
20260506192605 60 32 2.0 7.0 0.00 0.58 0.58 57 1009.6
20260506192101 60 46 2.0 5.0 0.00 0.58 0.58 57 1009.4
20260506191557 60 329 2.0 2.0 0.00 0.58 0.58 58 1009.4
20260506191053 60 17 2.0 5.0 0.00 0.58 0.58 56 1009.5
20260506190551 60 3 1.0 5.0 0.00 0.58 0.58 55 1009.5
20260506190048 59 348 0.0 2.0 0.00 0.58 0.58 55 1009.5
20260506185545 60 55 7.0 10.0 0.00 0.58 0.58 53 1009.6
20260506185042 60 306 3.0 6.0 0.00 0.58 0.58 54 1009.5
20260506184539 59 335 3.0 5.0 0.00 0.58 0.58 58 1009.8
20260506184036 59 1 3.0 6.0 0.00 0.58 0.58 59 1009.6
20260506183532 59 320 1.0 2.0 0.00 0.58 0.58 58 1009.5
20260506183029 59 3 2.0 3.0 0.00 0.58 0.58 57 1009.8
20260506182526 59 352 4.0 6.0 0.00 0.58 0.58 57 1009.6
20260506182023 59 339 5.0 6.0 0.00 0.58 0.58 58 1009.6
20260506181521 59 51 5.0 9.0 0.00 0.58 0.58 57 1009.6
20260506181018 59 334 3.0 6.0 0.00 0.58 0.58 59 1009.6
20260506180514 60 27 1.0 5.0 0.00 0.58 0.58 57 1009.8
20260506180011 60 13 3.0 9.0 0.00 0.58 0.58 57 1009.6
20260506175508 60 20 4.0 13.0 0.00 0.58 0.58 56 1009.5
20260506175004 60 330 1.0 3.0 0.00 0.58 0.58 55 1009.7
20260506174502 60 16 4.0 6.0 0.00 0.58 0.58 54 1010.0
20260506173958 60 33 3.0 3.0 0.00 0.58 0.58 58 1009.8
20260506173456 59 2 3.0 9.0 0.00 0.58 0.58 57 1010.0
20260506172952 59 257 1.0 6.0 0.00 0.58 0.58 58 1009.9
20260506172450 59 6 7.0 8.0 0.00 0.58 0.58 58 1009.9
20260506171946 59 32 1.0 5.0 0.00 0.58 0.58 60 1009.8
20260506171444 59 20 2.0 6.0 0.00 0.58 0.58 59 1010.0
20260506170941 60 14 1.0 3.0 0.00 0.58 0.58 60 1009.9
20260506170437 59 333 2.0 8.0 0.00 0.58 0.58 60 1009.9
20260506165930 59 321 3.0 5.0 0.00 0.58 0.58 59 1010.1
20260506165428 58 353 3.0 6.0 0.00 0.58 0.58 58 1010.0
20260506164918 58 338 5.0 7.0 0.00 0.58 0.58 59 1010.1
20260506164415 58 329 1.0 2.0 0.00 0.58 0.58 64 1010.1
20260506163908 57 17 3.0 5.0 0.00 0.58 0.58 62 1009.9
20260506163402 57 302 6.0 8.0 0.00 0.58 0.58 64 1010.1
20260506162857 56 9 1.0 5.0 0.00 0.58 0.58 64 1010.1
20260506162355 56 340 5.0 8.0 0.00 0.58 0.58 65 1009.9
20260506161852 57 329 4.0 5.0 0.00 0.58 0.58 65 1010.0
20260506161350 57 313 1.0 5.0 0.00 0.58 0.58 67 1010.0
20260506160847 57 38 2.0 6.0 0.00 0.58 0.58 68 1009.9
20260506160344 56 25 3.0 7.0 0.00 0.58 0.58 67 1010.0
20260506155843 56 6 3.0 8.0 0.00 0.58 0.58 67 1009.9
20260506155339 56 127 3.0 6.0 0.00 0.58 0.58 65 1010.0
20260506153456 55 49 2.0 6.0 0.00 0.58 0.58 67 1009.8
20260506152954 54 347 2.0 3.0 0.00 0.58 0.58 68 1009.9
20260506152450 55 52 5.0 7.0 0.00 0.58 0.58 67 1010.2
20260506151949 55 320 0.0 3.0 0.00 0.58 0.58 70 1009.9
20260506151446 55 133 1.0 3.0 0.00 0.58 0.58 66 1009.8
20260506150943 54 348 1.0 7.0 0.00 0.58 0.58 67 1010.0
20260506150439 54 348 2.0 2.0 0.00 0.58 0.58 70 1009.5
20260506145937 54 33 4.0 8.0 0.00 0.58 0.58 68 1009.3
20260506145433 53 70 3.0 6.0 0.00 0.58 0.58 70 1009.3
20260506144931 53 309 2.0 3.0 0.00 0.58 0.58 71 1009.2
20260506144427 53 42 6.0 10.0 0.00 0.58 0.58 70 1009.2
20260506143925 53 28 3.0 7.0 0.00 0.58 0.58 72 1008.8
20260506143422 52 12 4.0 7.0 0.00 0.58 0.58 73 1009.0
20260506142920 52 356 4.0 7.0 0.00 0.58 0.58 73 1008.9
20260506142418 52 26 6.0 7.0 0.00 0.58 0.58 75 1008.8
20260506141916 51 305 3.0 5.0 0.00 0.58 0.58 77 1008.9
20260506141414 51 24 3.0 6.0 0.00 0.58 0.58 78 1008.9
20260506140912 51 339 4.0 8.0 0.00 0.58 0.58 79 1009.0
20260506140408 51 356 9.0 11.0 0.00 0.58 0.58 79 1008.9
20260506135905 51 356 4.0 6.0 0.00 0.58 0.58 80 1008.6
20260506135402 50 32 4.0 9.0 0.00 0.58 0.58 82 1008.5
20260506134858 50 7 4.0 7.0 0.00 0.58 0.58 82 1008.6
20260506134355 50 329 2.0 5.0 0.00 0.58 0.58 86 1008.6
20260506133852 49 20 3.0 7.0 0.00 0.58 0.58 86 1008.7
20260506133348 49 318 3.0 5.0 0.00 0.58 0.58 87 1009.0
20260506132845 49 9 3.0 3.0 0.00 0.58 0.58 88 1008.9
20260506132342 48 340 4.0 5.0 0.00 0.58 0.58 88 1008.8
20260506131841 49 329 5.0 6.0 0.00 0.58 0.58 88 1008.8
20260506131336 49 352 2.0 2.0 0.00 0.58 0.58 89 1008.5
20260506130834 48 356 1.0 6.0 0.00 0.58 0.58 88 1008.5
20260506130330 48 28 2.0 3.0 0.00 0.58 0.58 88 1008.5
20260506125828 48 20 1.0 3.0 0.00 0.58 0.58 88 1008.6
20260506125326 48 344 1.0 6.0 0.00 0.58 0.58 89 1008.4
20260506124824 48 334 2.0 2.0 0.00 0.58 0.58 90 1008.6
20260506124321 48 57 4.0 5.0 0.00 0.58 0.58 90 1008.3
20260506123818 48 308 1.0 3.0 0.00 0.58 0.58 90 1008.5
20260506123317 47 358 3.0 3.0 0.00 0.58 0.58 91 1008.2
20260506122814 47 38 1.0 3.0 0.00 0.58 0.58 91 1008.3
20260506122311 47 48 0.0 3.0 0.00 0.58 0.58 92 1007.7
20260506121809 47 18 2.0 7.0 0.00 0.58 0.58 92 1007.9
20260506121305 46 29 3.0 5.0 0.00 0.58 0.58 93 1007.7
20260506120803 46 342 1.0 5.0 0.00 0.58 0.58 93 1007.9
20260506120300 46 350 0.0 1.0 0.00 0.58 0.58 94 1007.7
20260506115758 46 357 1.0 3.0 0.00 0.58 0.58 94 1007.4
20260506115256 46 313 3.0 5.0 0.00 0.58 0.58 94 1007.6
20260506114753 46 9 1.0 3.0 0.00 0.58 0.58 95 1007.5
20260506114251 46 330 1.0 3.0 0.00 0.58 0.58 95 1007.2